VK6CV Weather Reports


time (UTC)temp
F
wind
direction
speed
knots
gust
knots
rain 1hr
in
rain 24hr
in
rain mn
in
humidity
%
barometer
mb
20260509024054 66 360 5.2 11.3 0.00 0.00 0.00 45 1026.9
20260509023554 66 10 5.2 11.3 0.00 0.00 0.00 45 1027.0
20260509023057 65 360 6.1 11.3 0.00 0.00 0.00 46 1027.2
20260509022553 65 360 6.1 11.3 0.00 0.00 0.00 46 1027.2
20260509022052 66 360 4.3 11.3 0.00 0.00 0.00 46 1027.3
20260509021554 66 360 4.3 13.0 0.00 0.00 0.00 47 1027.3
20260509021053 65 75 4.3 13.0 0.00 0.00 0.00 48 1027.4
20260509020555 65 64 3.5 11.3 0.00 0.00 0.00 48 1027.3
20260509020054 65 34 5.2 11.3 0.00 0.00 0.00 48 1027.4
20260509015553 64 80 4.3 12.2 0.00 0.00 0.00 49 1027.2
20260509015053 64 36 5.2 12.2 0.00 0.00 0.00 49 1027.3
20260509014553 64 76 5.2 11.3 0.00 0.00 0.00 48 1027.5
20260509014052 64 38 5.2 11.3 0.00 0.00 0.00 50 1027.6
20260509013553 63 74 6.1 11.3 0.00 0.00 0.00 50 1027.7
20260509013102 63 59 4.3 8.7 0.00 0.00 0.00 51 1027.7
20260509012552 63 64 4.3 10.4 0.00 0.00 0.00 51 1027.7
20260509012052 62 97 6.1 10.4 0.00 0.00 0.00 51 1027.8
20260509011556 62 61 5.2 10.4 0.00 0.00 0.00 52 1027.8
20260509011053 62 47 5.2 10.4 0.00 0.00 0.00 52 1027.8
20260509010553 62 47 5.2 10.4 0.00 0.00 0.00 52 1027.9
20260509010055 62 15 5.2 11.3 0.00 0.00 0.00 52 1027.8
20260509005553 62 46 4.3 11.3 0.00 0.00 0.00 53 1027.8
20260509005053 61 33 5.2 11.3 0.00 0.00 0.00 53 1027.9
20260509004555 61 70 4.3 8.7 0.00 0.00 0.00 53 1028.0
20260509004055 61 33 4.3 8.7 0.00 0.00 0.00 54 1027.9
20260509003553 61 38 3.5 11.3 0.00 0.00 0.00 54 1027.8
20260509003056 60 68 5.2 11.3 0.00 0.00 0.00 54 1027.9
20260509002557 60 35 6.1 11.3 0.00 0.00 0.00 54 1027.9
20260509002053 60 352 3.5 11.3 0.00 0.00 0.00 55 1027.8
20260509001554 60 34 3.5 11.3 0.00 0.00 0.00 55 1027.8
20260509001053 60 43 5.2 11.3 0.00 0.00 0.00 56 1027.7
20260509000552 59 42 4.3 7.8 0.00 0.00 0.00 56 1027.7
20260509000109 59 69 3.5 9.6 0.00 0.00 0.00 56 1027.6
20260508235553 59 36 4.3 9.6 0.00 0.00 0.00 56 1027.7
20260508235050 59 98 3.5 7.8 0.00 0.00 0.00 57 1027.6
20260508234608 59 38 3.5 7.0 0.00 0.00 0.00 57 1027.6
20260508234053 58 71 2.6 7.8 0.00 0.00 0.00 57 1027.6
20260508233553 58 51 4.3 7.8 0.00 0.00 0.00 57 1027.5
20260508233058 58 63 3.5 7.0 0.00 0.00 0.00 58 1027.4
20260508232554 58 61 2.6 7.0 0.00 0.00 0.00 58 1027.4
20260508232053 58 60 3.5 6.1 0.00 0.00 0.00 57 1027.5
20260508231552 58 55 3.5 6.1 0.00 0.00 0.00 58 1027.4
20260508231052 58 56 3.5 7.8 0.00 0.00 0.00 58 1027.3
20260508230552 58 44 3.5 7.8 0.00 0.00 0.00 58 1027.4
20260508230101 58 50 3.5 7.8 0.00 0.00 0.00 58 1027.3
20260508225553 58 67 3.5 7.0 0.00 0.00 0.00 57 1027.3
20260508225053 58 34 2.6 7.8 0.00 0.00 0.00 57 1027.4
20260508224557 58 46 2.6 7.8 0.00 0.00 0.00 57 1027.2
20260508224055 58 57 3.5 7.0 0.00 0.00 0.00 57 1027.2
20260508223557 58 61 2.6 6.1 0.00 0.00 0.00 56 1027.2
20260508223054 58 57 2.6 8.7 0.00 0.00 0.00 56 1027.1
20260508222553 58 29 2.6 10.4 0.00 0.00 0.00 56 1027.2
20260508222052 59 61 5.2 10.4 0.00 0.00 0.00 56 1027.0
20260508221602 59 71 3.5 8.7 0.00 0.00 0.00 56 1027.1
20260508221131 59 53 3.5 9.6 0.00 0.00 0.00 56 1027.1
20260508220554 59 26 3.5 9.6 0.00 0.00 0.00 55 1027.1
20260508220054 59 35 4.3 9.6 0.00 0.00 0.00 55 1027.0
20260508215553 59 38 2.6 8.7 0.00 0.00 0.00 55 1026.9
20260508215053 59 31 2.6 7.8 0.00 0.00 0.00 55 1027.0
20260508214607 59 30 3.5 7.8 0.00 0.00 0.00 55 1027.0
20260508214054 59 37 4.3 9.6 0.00 0.00 0.00 55 1027.0
20260508213550 59 78 3.5 9.6 0.00 0.00 0.00 54 1027.0
20260508213101 60 17 3.5 8.7 0.00 0.00 0.00 54 1026.8
20260508212558 60 42 3.5 10.4 0.00 0.00 0.00 54 1026.7
20260508212056 60 51 3.5 10.4 0.00 0.00 0.00 53 1026.7
20260508211559 60 63 4.3 11.3 0.00 0.00 0.00 53 1026.5
20260508211053 60 68 5.2 11.3 0.00 0.00 0.00 53 1026.4
20260508210555 60 63 5.2 10.4 0.00 0.00 0.00 53 1026.4
20260508210053 60 63 6.1 11.3 0.00 0.00 0.00 53 1026.4
20260508205553 60 61 5.2 11.3 0.00 0.00 0.00 53 1026.4
20260508205053 60 58 3.5 8.7 0.00 0.00 0.00 53 1026.5
20260508204602 60 40 5.2 8.7 0.00 0.00 0.00 53 1026.3
20260508204056 60 51 3.5 8.7 0.00 0.00 0.00 53 1026.4
20260508203553 60 53 2.6 8.7 0.00 0.00 0.00 53 1026.3
20260508203058 60 54 4.3 8.7 0.00 0.00 0.00 53 1026.3
20260508202553 60 65 4.3 8.7 0.00 0.00 0.00 53 1026.4
20260508202053 60 51 3.5 8.7 0.00 0.00 0.00 53 1026.3
20260508201608 60 69 3.5 8.7 0.00 0.00 0.00 53 1026.3
20260508201055 60 44 4.3 9.6 0.00 0.00 0.00 53 1026.1
20260508200553 60 112 4.3 10.4 0.00 0.00 0.00 53 1026.1
20260508200108 59 44 4.3 10.4 0.00 0.00 0.00 53 1026.0
20260508195553 59 78 5.2 10.4 0.00 0.00 0.00 54 1026.0
20260508195053 59 110 5.2 10.4 0.00 0.00 0.00 54 1025.9
20260508194552 59 60 4.3 9.6 0.00 0.00 0.00 54 1025.9
20260508194054 59 71 5.2 10.4 0.00 0.00 0.00 54 1025.9
20260508193553 59 43 5.2 10.4 0.00 0.00 0.00 54 1025.8
20260508193057 59 63 4.3 9.6 0.00 0.00 0.00 54 1025.9
20260508192553 59 48 4.3 9.6 0.00 0.00 0.00 54 1025.9
20260508192054 60 61 4.3 9.6 0.00 0.00 0.00 53 1026.0
20260508191552 60 49 4.3 9.6 0.00 0.00 0.00 53 1025.9
20260508191053 60 55 3.5 8.7 0.00 0.00 0.00 53 1025.9
20260508190554 60 26 4.3 9.6 0.00 0.00 0.00 53 1026.0
20260508185552 60 40 4.3 8.7 0.00 0.00 0.00 53 1025.8
20260508185053 60 65 3.5 9.6 0.00 0.00 0.00 53 1025.9
20260508184552 60 102 4.3 9.6 0.00 0.00 0.00 53 1025.9
20260508184057 60 63 3.5 9.6 0.00 0.00 0.00 52 1025.9
20260508183552 60 74 5.2 9.6 0.00 0.00 0.00 52 1025.9
20260508183059 60 72 4.3 7.8 0.00 0.00 0.00 52 1025.9
20260508182553 60 46 3.5 8.7 0.00 0.00 0.00 52 1026.0
20260508182052 61 69 3.5 8.7 0.00 0.00 0.00 51 1026.0
20260508181613 61 81 4.3 11.3 0.00 0.00 0.00 51 1025.9
20260508181055 61 30 3.5 11.3 0.00 0.00 0.00 51 1025.9
20260508180553 61 45 5.2 9.6 0.00 0.00 0.00 51 1025.9
20260508180113 61 39 5.2 9.6 0.00 0.00 0.00 50 1025.8
20260508175553 61 55 3.5 12.2 0.00 0.00 0.00 50 1026.0
20260508175053 61 26 4.3 12.2 0.00 0.00 0.00 50 1026.0
20260508174607 61 58 4.3 11.3 0.00 0.00 0.00 49 1025.9
20260508174057 62 55 5.2 11.3 0.00 0.00 0.00 50 1026.0
20260508173553 62 55 4.3 10.4 0.00 0.00 0.00 49 1026.0
20260508173057 62 80 4.3 10.4 0.00 0.00 0.00 49 1025.9
20260508172556 62 73 5.2 10.4 0.00 0.00 0.00 49 1025.8
20260508172054 62 78 4.3 12.2 0.00 0.00 0.00 49 1025.9
20260508171554 62 63 6.1 12.2 0.00 0.00 0.00 48 1025.9
20260508171052 62 45 4.3 8.7 0.00 0.00 0.00 48 1026.0
20260508170554 62 111 4.3 10.4 0.00 0.00 0.00 48 1025.9
20260508170059 62 134 3.5 10.4 0.00 0.00 0.00 48 1026.0
20260508165552 63 107 4.3 9.6 0.00 0.00 0.00 48 1026.0
20260508165053 63 17 5.2 9.6 0.00 0.00 0.00 48 1026.0
20260508164606 63 67 4.3 9.6 0.00 0.00 0.00 48 1026.1
20260508164053 62 99 3.5 8.7 0.00 0.00 0.00 48 1026.1
20260508163555 62 59 2.6 9.6 0.00 0.00 0.00 48 1026.1
20260508163053 62 66 3.5 9.6 0.00 0.00 0.00 48 1026.1
20260508162553 62 12 2.6 5.2 0.00 0.00 0.00 48 1025.9
20260508162051 63 65 1.7 5.2 0.00 0.00 0.00 47 1026.0
20260508161556 63 82 1.7 8.7 0.00 0.00 0.00 47 1025.9
20260508161053 63 76 3.5 8.7 0.00 0.00 0.00 46 1025.8
20260508160552 63 42 1.7 7.8 0.00 0.00 0.00 46 1025.9
20260508160055 63 53 3.5 7.8 0.00 0.00 0.00 46 1025.8
20260508155551 63 57 2.6 7.8 0.00 0.00 0.00 45 1026.0
20260508155053 64 61 2.6 7.8 0.00 0.00 0.00 45 1025.8
20260508154601 64 93 3.5 7.8 0.00 0.00 0.00 45 1025.9
20260508154055 64 84 1.7 7.0 0.00 0.00 0.00 45 1025.9
20260508153553 63 86 2.6 7.0 0.00 0.00 0.00 45 1025.9
20260508153053 63 86 1.7 7.0 0.00 0.00 0.00 45 1025.9
20260508152556 63 64 2.6 7.0 0.00 0.00 0.00 45 1025.8
20260508152054 63 67 2.6 7.0 0.00 0.00 0.00 45 1025.8
20260508151604 63 71 1.7 6.1 0.00 0.00 0.00 45 1025.8
20260508151052 63 32 2.6 7.0 0.00 0.00 0.00 45 1025.9
20260508150554 63 107 2.6 7.0 0.00 0.00 0.00 46 1025.8
20260508150055 63 65 1.7 6.1 0.00 0.00 0.00 46 1025.9
20260508145553 63 94 2.6 7.0 0.00 0.00 0.00 46 1025.9
20260508145056 63 86 1.7 7.8 0.00 0.00 0.00 46 1026.0
20260508144553 63 90 2.6 7.8 0.00 0.00 0.00 46 1026.1
20260508144053 63 105 3.5 7.8 0.00 0.00 0.00 46 1025.9
20260508143553 63 105 2.6 7.8 0.00 0.00 0.00 46 1026.2
20260508143058 63 98 3.5 7.0 0.00 0.00 0.00 47 1026.1
20260508142552 63 95 2.6 7.0 0.00 0.00 0.00 47 1026.2
20260508142053 63 100 1.7 7.0 0.00 0.00 0.00 47 1026.2
20260508141600 63 101 2.6 6.1 0.00 0.00 0.00 48 1026.2
20260508141053 63 90 1.7 6.1 0.00 0.00 0.00 48 1026.2
20260508140558 63 91 2.6 6.1 0.00 0.00 0.00 48 1026.2
20260508140106 64 91 1.7 6.1 0.00 0.00 0.00 49 1026.3
20260508135555 64 90 2.6 6.1 0.00 0.00 0.00 49 1026.2
20260508135052 64 90 3.5 6.1 0.00 0.00 0.00 48 1026.1
20260508134553 64 94 2.6 7.0 0.00 0.00 0.00 49 1026.1
20260508134053 64 101 3.5 7.0 0.00 0.00 0.00 49 1026.1
20260508133553 64 92 4.3 7.0 0.00 0.00 0.00 49 1026.1
20260508133052 64 87 2.6 7.0 0.00 0.00 0.00 49 1026.2
20260508132553 64 89 2.6 7.0 0.00 0.00 0.00 49 1026.2
20260508132053 65 94 4.3 10.4 0.00 0.00 0.00 48 1026.2
20260508131558 65 73 3.5 10.4 0.00 0.00 0.00 48 1026.2
20260508131054 65 80 4.3 9.6 0.00 0.00 0.00 48 1026.1
20260508130556 65 94 5.2 9.6 0.00 0.00 0.00 48 1026.0
20260508130052 65 92 5.2 9.6 0.00 0.00 0.00 48 1026.0
20260508125553 65 82 4.3 7.8 0.00 0.00 0.00 48 1026.0
20260508125052 65 90 4.3 7.8 0.00 0.00 0.00 48 1026.0
20260508124555 65 106 3.5 7.8 0.00 0.00 0.00 48 1026.0
20260508124052 65 94 4.3 7.8 0.00 0.00 0.00 48 1026.0
20260508123552 65 74 3.5 7.8 0.00 0.00 0.00 48 1025.9
20260508123054 65 78 2.6 7.8 0.00 0.00 0.00 48 1025.9
20260508122553 65 78 2.6 7.8 0.00 0.00 0.00 48 1025.9
20260508122053 65 78 2.6 7.0 0.00 0.00 0.00 48 1025.9
20260508121559 65 86 2.6 7.0 0.00 0.00 0.00 48 1025.8
20260508121057 65 85 1.7 6.1 0.00 0.00 0.00 48 1025.8
20260508120552 66 84 2.6 6.1 0.00 0.00 0.00 48 1025.9
20260508120101 65 84 2.6 6.1 0.00 0.00 0.00 48 1025.9
20260508115553 66 87 1.7 3.5 0.00 0.00 0.00 48 1025.8
20260508115052 66 88 1.7 3.5 0.00 0.00 0.00 48 1025.9
20260508114555 66 88 1.7 5.2 0.00 0.00 0.00 47 1025.9
20260508114053 67 88 1.7 7.8 0.00 0.00 0.00 47 1025.9
20260508113553 67 88 2.6 7.8 0.00 0.00 0.00 47 1025.9
20260508113057 67 86 3.5 7.8 0.00 0.00 0.00 46 1025.9
20260508112552 67 94 2.6 7.8 0.00 0.00 0.00 46 1025.9
20260508112052 67 96 3.5 7.8 0.00 0.00 0.00 46 1025.9
20260508111600 67 106 4.3 7.8 0.00 0.00 0.00 46 1025.9
20260508111054 67 95 2.6 6.1 0.00 0.00 0.00 47 1026.0
20260508110554 67 107 2.6 6.1 0.00 0.00 0.00 47 1025.8
20260508105556 67 108 1.7 5.2 0.00 0.00 0.00 46 1025.9
20260508105053 68 108 1.7 3.5 0.00 0.00 0.00 46 1025.9
20260508104551 68 109 1.7 3.5 0.00 0.00 0.00 45 1025.8
20260508104053 68 109 1.7 5.2 0.00 0.00 0.00 45 1025.9
20260508103553 68 109 1.7 7.0 0.00 0.00 0.00 44 1025.9
20260508103120 69 109 3.5 7.0 0.00 0.00 0.00 44 1025.8
20260508102552 69 72 2.6 7.0 0.00 0.00 0.00 44 1025.7
20260508102053 69 84 3.5 7.8 0.00 0.00 0.00 44 1025.7
20260508101605 69 57 3.5 9.6 0.00 0.00 0.00 43 1025.6
20260508101053 69 71 3.5 9.6 0.00 0.00 0.00 43 1025.6
20260508100553 69 92 5.2 8.7 0.00 0.00 0.00 43 1025.6
20260508100053 69 53 3.5 8.7 0.00 0.00 0.00 43 1025.5
20260508095554 70 98 4.3 8.7 0.00 0.00 0.00 43 1025.5
20260508095053 70 34 4.3 7.8 0.00 0.00 0.00 43 1025.3
20260508094607 70 118 2.6 7.8 0.00 0.00 0.00 43 1025.5
20260508094053 70 88 2.6 10.4 0.00 0.00 0.00 43 1025.4
20260508093553 70 107 4.3 10.4 0.00 0.00 0.00 42 1025.4
20260508093055 70 92 4.3 10.4 0.00 0.00 0.00 42 1025.3
20260508092553 71 113 3.5 7.8 0.00 0.00 0.00 42 1025.3
20260508092056 71 126 2.6 10.4 0.00 0.00 0.00 42 1025.2
20260508091550 71 109 5.2 12.2 0.00 0.00 0.00 41 1025.2
20260508091053 71 114 4.3 12.2 0.00 0.00 0.00 41 1025.2
20260508090553 71 85 6.1 12.2 0.00 0.00 0.00 41 1025.2
20260508090110 72 94 6.1 11.3 0.00 0.00 0.00 41 1025.2
20260508085553 72 98 4.3 11.3 0.00 0.00 0.00 42 1025.1
20260508085053 72 72 6.1 12.2 0.00 0.00 0.00 41 1025.1
20260508084555 72 28 6.1 13.0 0.00 0.00 0.00 41 1024.9
20260508084053 72 115 7.8 13.0 0.00 0.00 0.00 41 1024.9
20260508083554 72 125 6.1 12.2 0.00 0.00 0.00 41 1024.9
20260508083112 72 79 4.3 12.2 0.00 0.00 0.00 42 1024.8
20260508082553 73 87 5.2 12.2 0.00 0.00 0.00 42 1024.9
20260508082052 73 96 5.2 13.0 0.00 0.00 0.00 41 1025.0
20260508081557 73 61 7.0 13.9 0.00 0.00 0.00 41 1024.9
20260508081054 73 17 5.2 13.9 0.00 0.00 0.00 41 1025.0
20260508080553 73 87 7.0 13.9 0.00 0.00 0.00 41 1025.0
20260508080054 73 126 5.2 11.3 0.00 0.00 0.00 41 1025.0
20260508075555 73 120 4.3 11.3 0.00 0.00 0.00 41 1025.0
20260508075053 73 71 5.2 13.0 0.00 0.00 0.00 41 1025.1
20260508074555 73 71 5.2 14.8 0.00 0.00 0.00 41 1025.1
20260508074055 73 99 6.1 14.8 0.00 0.00 0.00 41 1025.0
20260508073553 73 113 5.2 11.3 0.00 0.00 0.00 41 1025.0
20260508073054 73 111 5.2 11.3 0.00 0.00 0.00 41 1025.0
20260508072552 73 61 5.2 11.3 0.00 0.00 0.00 40 1025.0
20260508072054 73 34 5.2 11.3 0.00 0.00 0.00 40 1025.0
20260508071552 73 48 6.1 11.3 0.00 0.00 0.00 40 1025.0
20260508071054 73 85 5.2 10.4 0.00 0.00 0.00 40 1024.9
20260508070551 73 86 5.2 13.0 0.00 0.00 0.00 40 1025.1
20260508070056 73 43 7.0 13.0 0.00 0.00 0.00 40 1025.2
20260508065553 73 103 4.3 10.4 0.00 0.00 0.00 41 1025.1
20260508065053 73 99 5.2 10.4 0.00 0.00 0.00 40 1025.1
20260508064556 73 58 4.3 9.6 0.00 0.00 0.00 41 1025.2
20260508064053 73 128 4.3 11.3 0.00 0.00 0.00 43 1025.1
20260508063553 73 84 5.2 12.2 0.00 0.00 0.00 43 1025.4
20260508063054 73 51 4.3 13.9 0.00 0.00 0.00 43 1025.3
20260508062552 73 24 7.8 13.9 0.00 0.00 0.00 43 1025.3
20260508062056 73 110 4.3 9.6 0.00 0.00 0.00 43 1025.3
20260508061556 73 127 4.3 10.4 0.00 0.00 0.00 44 1025.5
20260508061053 72 63 2.6 11.3 0.00 0.00 0.00 45 1025.5
20260508060553 72 78 5.2 12.2 0.00 0.00 0.00 44 1025.7
20260508060107 72 104 6.1 12.2 0.00 0.00 0.00 44 1025.7
20260508055552 72 95 6.1 12.2 0.00 0.00 0.00 45 1025.7
20260508055052 72 43 6.1 12.2 0.00 0.00 0.00 45 1025.8
20260508054604 72 124 5.2 13.0 0.00 0.00 0.00 46 1025.8
20260508054052 72 115 6.1 13.0 0.00 0.00 0.00 46 1026.0
20260508053553 72 53 6.1 13.0 0.00 0.00 0.00 46 1025.9
20260508053056 72 40 4.3 11.3 0.00 0.00 0.00 46 1025.9
20260508052553 71 75 5.2 13.9 0.00 0.00 0.00 47 1026.0
20260508052053 71 124 4.3 13.9 0.00 0.00 0.00 48 1026.1
20260508051556 71 98 7.8 13.9 0.00 0.00 0.00 48 1026.0
20260508051053 71 83 7.0 13.9 0.00 0.00 0.00 48 1026.2
20260508050553 71 65 3.5 11.3 0.00 0.00 0.00 48 1026.2
20260508050058 71 101 6.1 11.3 0.00 0.00 0.00 48 1026.4
20260508045552 71 111 5.2 11.3 0.00 0.00 0.00 48 1026.5
20260508045052 71 84 6.1 11.3 0.00 0.00 0.00 48 1026.5
20260508044554 71 88 4.3 13.0 0.00 0.00 0.00 48 1026.7
20260508044054 70 121 4.3 13.0 0.00 0.00 0.00 49 1026.6
20260508043553 70 51 7.8 13.0 0.00 0.00 0.00 48 1026.9
20260508043100 70 65 7.0 11.3 0.00 0.00 0.00 47 1027.0
20260508042553 70 40 3.5 10.4 0.00 0.00 0.00 49 1027.0
20260508042057 70 57 4.3 11.3 0.00 0.00 0.00 49 1027.0
20260508041559 70 67 4.3 11.3 0.00 0.00 0.00 49 1027.2
20260508041053 70 30 6.1 11.3 0.00 0.00 0.00 49 1027.3
20260508040553 70 101 5.2 10.4 0.00 0.00 0.00 50 1027.3
20260508040056 69 61 4.3 11.3 0.00 0.00 0.00 51 1027.5
20260508035553 69 119 4.3 13.9 0.00 0.00 0.00 52 1027.6
20260508035053 69 22 7.0 13.9 0.00 0.00 0.00 51 1027.9
20260508034604 69 78 5.2 9.6 0.00 0.00 0.00 51 1028.0
20260508034053 69 9 4.3 9.6 0.00 0.00 0.00 52 1028.0
20260508033552 68 19 4.3 12.2 0.00 0.00 0.00 53 1028.1
20260508033057 68 65 6.1 12.2 0.00 0.00 0.00 52 1028.2
20260508032553 68 33 6.1 12.2 0.00 0.00 0.00 52 1028.3
20260508032053 68 19 7.0 12.2 0.00 0.00 0.00 52 1028.3
20260508031559 68 41 6.1 13.9 0.00 0.00 0.00 52 1028.4
20260508031053 68 51 5.2 13.9 0.00 0.00 0.00 53 1028.5
20260508030553 67 46 7.0 13.9 0.00 0.00 0.00 53 1028.5
20260508030100 67 24 6.1 13.9 0.00 0.00 0.00 53 1028.6
20260508025553 67 103 6.1 13.9 0.00 0.00 0.00 53 1028.6
20260508025053 67 72 6.1 13.9 0.00 0.00 0.00 53 1028.7
20260508024554 67 76 7.0 13.9 0.00 0.00 0.00 52 1028.8